Location: Notre Dame Regional High School Observatory
(37.3056°N, 89.6097°W)
Time: 10:19:37
(UTC-05:00)

Okean-O - Visible Passes

Search period start: 23 August 2014 00:00
Search period end: 02 September 2014 00:00
Orbit: 643 x 645 km, 98.0° (Epoch: 22 August)

Date Brightness Start Highest point End Pass type
(mag) Time Alt. Az. Time Alt. Az. Time Alt. Az.
23 Aug 2.5 04:33:52 10° N 04:38:19 77° WNW 04:39:59 38° SSW visible
24 Aug 5.0 03:23:24 10° NE 03:26:11 16° E 03:27:12 15° ESE visible
24 Aug 3.2 04:58:44 10° N 05:02:54 40° WNW 05:04:51 26° WSW visible
25 Aug 4.2 03:47:05 10° NE 03:51:00 30° E 03:52:04 27° ESE visible
25 Aug 4.0 05:23:58 10° NNW 05:27:23 22° WNW 05:29:43 15° WSW visible
26 Aug 3.1 04:11:21 10° NNE 04:15:45 58° E 04:16:56 42° SSE visible
26 Aug 4.6 05:49:58 10° NW 05:51:47 12° WNW 05:53:36 10° W visible
27 Aug 2.5 04:35:57 10° N 04:40:24 73° WNW 04:41:48 43° SSW visible
28 Aug 5.0 03:25:22 10° NE 03:28:17 17° E 03:29:00 17° ESE visible
28 Aug 3.2 05:00:51 10° N 05:04:58 38° WNW 05:06:40 27° WSW visible
29 Aug 4.1 03:49:07 10° NE 03:53:06 32° E 03:53:52 30° ESE visible
29 Aug 4.0 05:26:07 10° NNW 05:29:27 21° WNW 05:31:32 16° WSW visible
30 Aug 3.0 04:13:25 10° NNE 04:17:50 61° E 04:18:44 49° SSE visible
30 Aug 4.6 05:52:15 10° NW 05:53:50 12° WNW 05:55:26 10° W visible
31 Aug 2.5 04:38:02 10° N 04:42:28 70° WNW 04:43:36 48° SW visible
01 Sep 4.9 03:27:20 10° NE 03:30:22 18° E 03:30:48 18° E visible
01 Sep 3.3 05:02:57 10° N 05:07:02 36° WNW 05:08:27 29° WSW visible
